User: anonymous   Login
Location: Jodlow
(50.1500°N, 16.7500°E)
Time: 04:13:26
(UTC+01:00)
Language:

ZACube-1 - Orbit

View from above orbital plane
View from above orbital plane
View from above satellite
View from above satellite

Ground track
Ground track

The orbit data is extracted from the following two-line orbital elements,

1 39417U 13066B   24057.45840545  .00005111  00000-0  55340-3 0  9991
2 39417  97.7220  16.1618 0052545 167.8027 192.4476 14.87656785554967
Epoch (UTC): 26 February 2024 11:00:06
Eccentricity: 0.0052545
inclination: 97.7220°
perigee height: 568 km
apogee height: 642 km
right ascension of ascending node: 16.1618°
argument of perigee: 167.8027°
revolutions per day: 14.87656785
mean anomaly at epoch: 192.4476°
orbit number at epoch: 55496

The dashed part of the orbit path shows where the satellite is in the earth's shadow,  

DLR